Home > Time Zones > World Clock > Weather > Serbia > Niš > Past weeks

Flag for Serbia Weather past 2 weeks in Niš, Serbia

Now
39 °F

Broken clouds.


Feels Like: 34 °F
Forecast: 35 / 37 °F
Wind: 8 mph from Northwest

Location: Nis Airport

Current Time: Mar 6, 2015 at 12:35:24 PM

Latest Report: Mar 6, 2015 at 12:00 PM


Visibility: N/A

Pressure: 30.27 "Hg

Humidity: 75%

Dew point: 32 °F

Location of NišLocation

Historic Weather in Niš — Graph

°F

Niš temperature yesterday

Maximum temperature yesterday: 48 °F (at 12:00 AM)
Minimum temperature yesterday: 36 °F (at 10:00 PM)
Average temperature yesterday: 40 °F

Past Weeks' High & Low Weather Summary

 TemperatureHumidityPressure
High64 °F (Feb 24, 4:00 PM)100% (Feb 26, 1:30 AM)30.57 "Hg (Feb 26, 1:30 AM)
Low23 °F (Feb 20, 4:30 AM)18% (Mar 4, 2:00 PM)29.59 "Hg (Feb 24, 3:30 PM)
Average45 °F69%29.99 "Hg
* Reported Feb 19 11:00 AM — Mar 6 11:30 AM, Niš, Weather by CustomWeather, © 2015

Note: Actual official high and low records may vary slightly from our data, if they occured in-between our weather recording intervals... More about our weather records

Advertising

Niš weather history for previous 24 hours

 ConditionsComfort  
Time TempWeatherWind HumidityBarometerVisibility
11:30 AM
Fri, Mar 6
37 °FLight rain. Partly sunny.9 mph87%30.24 "HgN/A
11:00 AM37 °FLight rain. Partly sunny.12 mph93%30.24 "HgN/A
10:30 AM36 °FLight rain. Partly sunny.12 mph100%30.24 "HgN/A
10:00 AM36 °FLight rain. Broken clouds.14 mph100%30.24 "HgN/A
9:30 AM36 °FLight snow. Scattered clouds.13 mph93%30.24 "HgN/A
9:00 AM34 °FLight snow. Mostly cloudy.13 mph100%30.21 "HgN/A
8:30 AM34 °FLight snow. Cloudy.10 mph100%30.21 "Hg5 mi
8:00 AM34 °FSnow. Cloudy.12 mph100%30.21 "Hg2 mi
7:30 AM34 °FLight snow. Cloudy.13 mph93%30.18 "Hg5 mi
7:00 AM32 °FLight snow. Cloudy.12 mph100%30.15 "Hg5 mi
6:30 AM32 °FSnow. Mostly cloudy.10 mph100%30.15 "Hg1 mi
6:00 AM32 °FHeavy snow. Mostly cloudy.12 mph100%30.12 "Hg1 mi
5:30 AM32 °FSnow. Mostly cloudy.13 mph100%30.12 "Hg2 mi
5:00 AM32 °FLight snow. Mostly cloudy.13 mph100%30.09 "Hg4 mi
4:30 AM32 °FSnow. Mostly cloudy.15 mph100%30.09 "Hg2 mi
4:00 AM32 °FSnow. Mostly cloudy.14 mph100%30.09 "Hg1 mi
3:30 AM32 °FSnow. Mostly cloudy.14 mph100%30.07 "Hg1 mi
3:00 AM34 °FSnow. Mostly cloudy.16 mph93%30.07 "Hg2 mi
2:30 AM34 °FSnow. Mostly cloudy.14 mph93%30.04 "Hg5 mi
2:00 AM36 °FLight snow. Passing clouds.12 mph81%30.04 "HgN/A
1:30 AM36 °FPassing clouds.5 mph81%30.04 "HgN/A
1:00 AM36 °FLight snow. Passing clouds.6 mph81%30.04 "HgN/A
12:30 AM36 °FLight snow. Passing clouds.10 mph81%30.07 "Hg5 mi
12:00 AM36 °FLight rain. Passing clouds.9 mph81%30.07 "Hg5 mi
11:30 PM
Thu, Mar 5
36 °FLight rain. Passing clouds.6 mph81%30.07 "Hg5 mi
11:00 PM36 °FRain. Mostly cloudy.8 mph87%30.07 "Hg4 mi
10:30 PM36 °FRain. Mostly cloudy.13 mph87%30.07 "HgN/A
10:00 PM36 °FLight rain. Passing clouds.14 mph87%30.07 "HgN/A
9:30 PM37 °FLight rain. Passing clouds.9 mph81%30.04 "HgN/A
9:00 PM37 °FLight rain. Passing clouds.8 mph81%30.04 "HgN/A
8:30 PM39 °FLight rain. Passing clouds.9 mph75%30.04 "HgN/A
8:00 PM39 °FLight rain. Passing clouds.10 mph75%30.04 "HgN/A
7:30 PM39 °FLight rain. Passing clouds.9 mph75%30.04 "HgN/A
7:00 PM37 °FLight rain. Passing clouds.7 mph81%30.04 "HgN/A
6:30 PM37 °FLight rain. Passing clouds.5 mph81%30.04 "HgN/A
6:00 PM37 °FLight rain. Passing clouds.10 mph81%30.04 "HgN/A
5:30 PM37 °FLight rain. Passing clouds.9 mph81%30.04 "Hg5 mi
5:00 PM39 °FLight rain. Partly sunny.10 mph75%30.04 "Hg5 mi
4:30 PM39 °FLight rain. Partly sunny.12 mph81%30.04 "HgN/A
4:00 PM39 °FLight rain. Partly sunny.12 mph81%30.04 "HgN/A
3:30 PM39 °FLight rain. Mostly cloudy.14 mph81%30.04 "HgN/A
3:00 PM39 °FLight rain. Mostly cloudy.14 mph81%30.04 "HgN/A
2:30 PM39 °FRain. Mostly cloudy.15 mph81%30.04 "Hg4 mi
2:00 PM39 °FLight rain. Mostly cloudy.13 mph81%30.04 "HgN/A
1:30 PM39 °FLight rain. Mostly cloudy.12 mph81%30.04 "HgN/A
1:00 PM39 °FRain. Mostly cloudy.16 mph81%30.04 "Hg4 mi
12:30 PM39 °FRain. Mostly cloudy.18 mph81%30.04 "Hg4 mi
12:00 PM39 °FLight rain. Mostly cloudy.17 mph87%30.07 "Hg5 mi
Weather by CustomWeather, © 2015

See weather overviewHow to use our weather pages